Weather History for Montreal, QC

Change the Weather History Date:

Thursday, November 17, 2011

  Actual Average Record
Temperature  
Mean Temperature 36 °F -  
Max Temperature 41 °F 39 °F 62 °F (2006)
Min Temperature 30 °F 28 °F 23 °F (1996)
Degree Days  
Heating Degree Days 28    
Moisture  
Dew Point 26 °F    
Average Humidity 64    
Maximum Humidity 81    
Minimum Humidity 40    
Precipitation  
Precipitation 0.00 in - - ()
Sea Level Pressure  
Sea Level Pressure 29.83 in    
Wind  
Wind Speed 8 mph ()    
Max Wind Speed 13 mph    
Max Gust Speed 20 mph    
Visibility 15.0 miles    
Events Rain , Snow    
Averages and records for this station are not official NWS values.
T = Trace of Precipitation, MM = Missing Value Source: Averaged Metar Reports

Daily Weather History Graph

Daily Weather History Graph

Search for Another Location

Airport:

Trip Planner

Search our weather history database for the weather conditions in past years. The results will help you decide how hot, cold, wet, or windy it might be!

Date:

Astronomy

Nov. 17, 2011 Rise Set
Actual Time 6:56 AM EST 4:23 PM EST
Civil Twilight 6:24 AM EST 4:55 PM EST
Nautical Twilight 5:47 AM EST 5:31 PM EST
Astronomical Twilight 5:12 AM EST 6:06 PM EST
Moon 10:46 PM EST (11/17) 11:58 AM EST (11/17)
Length of Visible Light 10h 31m
Length of Day
9h 26m
Waning Gibbous, 60% of the Moon is Illuminated
Nov 17
Waning Gibbous
Nov 18
Last Quarter
Nov 25
New
Dec 2
First Quarter
Dec 10
Full

Hourly Weather History & Observations

Time (EST) Temp. Windchill Dew Point Humidity Pressure Visibility Wind Dir Wind Speed Gust Speed Precip Events Conditions
12:00 AM 41.0 °F 33.9 °F 24.8 °F 53% 29.78 in 15.0 mi West 12.7 mph 19.6 mph N/A   Partly Cloudy
1:00 AM 40 °F - 24 °F 40% 29.79 in 15 mi West 11.5 mph - -   Clear
1:00 AM 41.0 °F 34.3 °F 24.8 °F 53% 29.79 in 15.0 mi West 11.5 mph - N/A   Scattered Clouds
2:00 AM 41.0 °F 33.9 °F 24.8 °F 53% 29.80 in 15.0 mi West 12.7 mph - N/A   Scattered Clouds
3:00 AM 39.2 °F 32.0 °F 24.8 °F 56% 29.81 in 15.0 mi West 11.5 mph - N/A   Mostly Cloudy
4:00 AM 37.4 °F 30.8 °F 24.8 °F 60% 29.82 in 15.0 mi WSW 9.2 mph - N/A   Mostly Cloudy
5:00 AM 35.6 °F 29.9 °F 24.8 °F 65% 29.83 in 15.0 mi West 6.9 mph - N/A   Mostly Cloudy
6:00 AM 35.6 °F 28.6 °F 24.8 °F 65% 29.83 in 15.0 mi WSW 9.2 mph - N/A   Mostly Cloudy
7:00 AM 34 °F - 25 °F 59% 29.84 in 15 mi West 6.9 mph - -   Clear
8:00 AM 33.8 °F 28.6 °F 24.8 °F 70% 29.86 in 15.0 mi West 5.8 mph - N/A   Mostly Cloudy
9:00 AM 39.2 °F 33.0 °F 26.6 °F 61% 29.86 in 15.0 mi WSW 9.2 mph - N/A   Mostly Cloudy
10:00 AM 39.2 °F 33.6 °F 26.6 °F 61% 29.86 in 15.0 mi West 8.1 mph - N/A   Mostly Cloudy
11:00 AM 41.0 °F 36.4 °F 24.8 °F 53% 29.86 in 15.0 mi West 6.9 mph - N/A   Mostly Cloudy
12:00 PM 41.0 °F 35.8 °F 24.8 °F 53% 29.84 in 30.0 mi West 8.1 mph - N/A   Mostly Cloudy
1:00 PM 42 °F - 26 °F 40% 29.81 in 15 mi West 6.9 mph - -   Overcast
1:00 PM 41.0 °F 37.1 °F 26.6 °F 57% 29.81 in 15.0 mi West 5.8 mph - N/A   Overcast
1:19 PM 41.0 °F 36.4 °F - N/A% - 15.0 mi West 6.9 mph - N/A Rain Light Rain Showers
1:36 PM 41.0 °F 36.4 °F - N/A% - 15.0 mi WSW 6.9 mph - N/A   Overcast
2:00 PM 41.0 °F 37.1 °F 30.2 °F 65% 29.80 in 15.0 mi SW 5.8 mph - N/A   Overcast
2:49 PM 41.0 °F 34.7 °F - N/A% - 15.0 mi West 10.4 mph - N/A Rain Light Rain Showers
3:00 PM 37.4 °F 31.4 °F 28.4 °F 70% 29.81 in 15.0 mi West 8.1 mph 17.3 mph N/A Rain Light Rain Showers
3:21 PM 37.4 °F 32.1 °F - N/A% - 15.0 mi WSW 6.9 mph - N/A   Overcast
4:00 PM 37.4 °F 32.1 °F 28.4 °F 70% 29.80 in 15.0 mi WSW 6.9 mph - N/A   Mostly Cloudy
5:00 PM 37.4 °F 29.8 °F 30.2 °F 75% 29.81 in 15.0 mi West 11.5 mph - N/A Rain Light Rain Showers
5:25 PM 35.6 °F 29.2 °F - N/A% - 15.0 mi WNW 8.1 mph - N/A Snow Light Snow Showers
5:43 PM 33.8 °F 27.7 °F - N/A% - 15.0 mi NW 6.9 mph - N/A   Mostly Cloudy
6:00 PM 33.8 °F 30.8 °F 28.4 °F 81% 29.83 in 15.0 mi WNW 3.5 mph - N/A   Mostly Cloudy
6:39 PM 33.8 °F - - N/A% - 15.0 mi NW 2.3 mph - N/A Rain Light Rain Showers
7:00 PM 33 °F - 28 °F 76% 29.83 in 15 mi West 2.3 mph - - Rain Light Rain Showers
7:00 PM 33.8 °F - 28.4 °F 81% 29.83 in 15.0 mi West 2.3 mph - N/A   Mostly Cloudy
8:00 PM 33.8 °F 29.6 °F 28.4 °F 81% 29.84 in 15.0 mi WSW 4.6 mph - N/A   Mostly Cloudy
8:28 PM 35.6 °F - - N/A% - 15.0 mi WSW 2.3 mph - N/A Snow Light Snow Showers
8:46 PM 35.6 °F 31.7 °F - N/A% - 15.0 mi WSW 4.6 mph - N/A   Mostly Cloudy
9:00 PM 35.6 °F 31.7 °F 28.4 °F 75% 29.85 in 15.0 mi WSW 4.6 mph - N/A   Scattered Clouds
10:00 PM 33.8 °F 26.4 °F 24.8 °F 70% 29.86 in 15.0 mi West 9.2 mph - N/A   Partly Cloudy
11:00 PM 30.2 °F 22.6 °F 23.0 °F 75% 29.86 in 15.0 mi WSW 8.1 mph - N/A   Partly Cloudy